Wind_Speed
86 89 92 95 97 91 85 80 77 73 72 71 71 68 61 54 50 46 47 44 45 52 55 60 66 72 72 77 83 91 94 87 90 100 100 98 93 88 83 77 72 70 67 68 63
90 94 97 98 98 91 90 85 82 77 74 71 70 67 61 56 51 48 49 41 46 51 55 61 65 70 71 77 80 86 89 87 91 100 106 104 96 92 86 80 76 73 72 68 65
94 99 100 101 97 94 92 88 85 79 77 71 70 66 60 56 52 55 44 47 46 49 56 60 65 67 72 77 77 78 85 92 96 98 107 107 99 91 90 84 80 79 77 73 70
99 102 99 98 97 97 92 89 84 80 77 73 69 65 59 55 55 54 50 50 48 50 56 60 63 66 70 76 81 80 87 94 96 101 104 106 102 97 93 90 85 82 82 75 69
102 103 99 100 98 97 93 88 85 81 77 72 67 62 58 52 61 54 52 51 49 50 54 58 61 65 67 77 83 83 87 95 97 99 105 106 105 101 94 93 88 86 81 77 73
105 102 99 100 97 93 92 89 84 81 78 73 66 59 53 55 62 49 53 51 50 49 55 58 60 65 69 75 83 85 90 93 98 100 104 104 107 105 101 96 96 92 84 81 78
104 102 102 101 96 94 90 89 84 81 78 75 66 56 50 58 61 54 51 52 50 49 53 59 63 65 68 75 82 90 93 96 99 103 104 106 104 104 106 103 97 92 91 83 81
102 102 103 100 97 93 90 87 84 80 78 73 66 52 53 56 56 59 48 53 50 52 53 59 63 65 68 74 84 90 96 95 94 98 100 106 104 103 106 106 101 99 90 87 83
104 104 102 101 99 94 89 85 82 78 75 71 64 49 53 54 54 56 50 51 53 52 53 58 61 63 69 72 81 89 93 89 89 92 97 104 106 103 102 106 104 99 94 90 86
105 105 103 103 100 91 86 82 81 77 73 68 60 48 49 50 51 53 51 53 51 55 54 56 59 62 65 70 73 80 86 91 94 90 92 98 109 106 103 104 105 105 95 94 88
106 105 106 105 99 90 84 80 77 77 66 63 51 49 47 49 50 53 53 54 53 54 51 57 59 56 61 71 79 84 87 91 97 92 91 95 107 111 105 105 102 103 103 103 96
107 107 108 104 96 90 82 78 72 70 73 55 51 48 49 46 53 54 49 52 55 52 57 60 50 53 68 74 78 85 87 93 97 96 94 93 91 97 105 106 104 103 100 100 96
108 109 108 102 95 88 83 76 75 71 59 53 48 48 47 48 52 52 49 51 51 52 54 56 49 66 67 74 78 82 89 92 93 96 94 99 98 100 98 93 95 100 96 94 97
111 112 107 99 92 88 82 77 73 68 61 49 46 44 45 46 49 50 50 48 50 52 55 51 58 63 66 71 78 81 87 94 99 99 91 103 96 98 92 99 93 91 91 91 93
114 114 104 96 91 87 80 78 73 68 57 49 45 45 42 42 46 47 49 49 50 55 51 39 58 61 64 66 77 81 86 93 99 100 96 104 104 92 95 93 89 93 91 92 93
116 109 103 96 89 85 79 77 70 63 55 48 45 44 42 40 40 42 45 47 50 54 48 54 61 66 63 70 77 88 89 92 100 103 105 91 105 101 89 86 83 85 91 98 96
116 107 102 97 89 84 80 76 68 60 54 50 46 42 40 37 37 37 39 43 49 52 50 57 61 63 68 72 78 86 92 91 100 107 106 101 95 109 96 92 87 87 87 87 88
112 108 102 97 89 86 81 73 65 58 54 50 46 42 38 36 35 34 33 38 43 46 49 57 62 61 67 69 74 82 95 95 93 99 99 101 95 81 106 106 97 92 90 88 84
113 108 106 95 90 88 80 68 64 59 54 50 46 42 36 34 34 31 31 33 39 47 48 53 59 64 68 73 77 80 90 98 93 91 96 98 96 88 82 98 103 98 95 94 92
114 106 101 99 96 88 78 68 63 59 53 49 47 42 35 34 32 28 28 32 37 40 44 52 57 64 70 76 77 83 90 97 96 89 89 96 98 91 89 83 86 97 101 100 98
113 108 103 101 94 87 77 67 61 56 51 49 45 41 35 33 30 27 26 29 32 36 40 47 56 61 70 73 74 79 80 88 89 87 85 87 96 95 93 91 84 82 91 95 95
111 108 103 99 90 81 74 67 61 54 51 48 44 39 35 31 28 25 26 26 28 34 40 44 49 60 68 70 74 76 77 80 85 82 84 84 88 96 92 92 87 81 77 74 71
113 109 101 97 93 83 72 64 58 53 50 46 44 38 34 29 28 24 26 23 28 34 38 44 48 60 71 77 78 78 77 76 78 82 83 88 90 87 94 91 89 85 78 74 70
113 107 102 97 91 81 72 64 55 51 49 46 42 39 33 28 27 23 23 23 27 33 38 43 46 55 61 71 75 75 74 73 73 74 77 81 90 97 88 91 90 87 82 73 68
112 105 104 94 88 78 69 62 56 51 46 45 42 38 33 27 26 23 23 23 25 29 35 42 47 52 58 68 74 76 76 75 71 71 74 79 85 94 96 86 89 87 85 80 72
110 107 101 92 85 74 66 58 54 49 47 43 41 37 32 27 26 22 23 24 25 28 34 40 45 48 54 62 70 75 75 75 74 71 72 78 82 84 94 92 87 86 82 82 79
111 106 98 91 80 71 62 55 52 48 44 41 40 36 31 27 25 23 23 21 23 29 32 37 43 51 52 58 67 75 77 78 73 67 65 68 75 78 84 96 93 88 84 81 79
Wind_Direction
325 324 325 326 326 324 322 321 317 316 313 311 309 310 308 304 293 280 271 267 253 248 243 239 238 233 229 229 222 222 224 221 219 220 222 224 225 222 224 224 225 226 226 227 230
324 327 327 325 325 323 322 321 318 317 313 312 310 309 307 303 291 277 278 267 254 247 241 235 235 234 229 227 226 222 223 222 221 220 222 224 221 223 222 225 225 225 225 228 228
327 326 327 325 324 322 322 321 319 317 315 313 310 308 306 299 285 281 279 265 253 246 243 238 235 233 229 226 228 224 220 221 221 222 222 223 221 221 223 223 226 225 225 226 227
326 324 325 326 324 323 322 320 317 316 314 313 310 308 303 293 278 283 280 269 257 247 243 240 236 235 230 226 225 224 219 221 221 222 222 223 222 221 223 223 225 227 227 227 227
325 325 325 324 323 323 322 319 319 317 315 312 310 307 299 285 279 285 281 271 263 254 247 241 238 233 230 225 222 223 218 220 221 222 223 222 221 220 221 225 225 228 229 228 226
324 325 325 323 323 322 322 320 319 317 315 312 308 304 296 279 284 283 277 269 262 252 246 243 238 235 229 224 222 222 221 217 219 222 222 223 221 220 221 223 226 226 228 230 229
323 324 322 321 325 324 324 320 319 315 312 309 306 304 292 280 282 282 272 267 260 254 249 243 237 234 232 224 221 221 222 219 217 220 221 222 221 220 222 222 224 225 226 226 230
324 324 322 324 325 327 323 320 316 311 310 307 304 302 287 283 280 275 271 269 262 256 247 243 241 235 231 226 220 219 224 222 219 221 222 222 221 220 222 224 224 224 228 227 228
323 323 324 326 326 327 323 318 313 310 308 305 303 301 287 285 277 274 272 262 259 252 248 244 242 238 231 228 223 220 221 225 222 222 222 224 222 221 221 223 224 226 226 228 229
324 325 326 327 327 326 322 318 312 308 306 305 304 298 288 284 277 274 269 263 258 254 248 245 240 238 234 231 228 225 220 221 225 221 222 222 221 223 220 222 227 227 226 228 227
325 326 328 327 327 326 321 317 311 309 310 308 305 295 288 281 276 271 266 263 258 255 250 244 239 235 236 231 225 223 220 218 223 222 219 220 221 223 222 223 225 226 229 227 226
327 328 328 328 328 325 322 318 311 308 309 312 305 293 287 282 277 275 274 266 262 253 246 244 236 232 228 228 226 220 219 220 221 225 221 218 219 223 224 223 223 226 227 229 231
328 329 330 329 328 325 322 317 315 317 316 311 299 292 289 284 279 278 268 262 258 253 249 244 226 225 225 225 226 221 217 218 220 225 224 218 216 220 224 221 227 225 227 228 231
330 330 331 330 328 326 323 318 315 319 319 311 301 294 288 284 279 278 271 262 255 248 241 235 227 225 223 224 224 223 218 215 219 222 222 219 219 219 224 221 222 227 225 226 229
331 332 332 331 329 328 324 318 319 322 318 310 304 296 289 282 277 272 267 263 254 248 243 230 230 228 221 221 223 223 221 216 219 221 222 219 217 219 222 224 224 226 227 230 230
331 332 334 332 329 327 323 322 324 324 317 311 305 299 294 287 278 268 263 259 254 249 241 224 223 224 219 219 219 220 222 217 217 220 221 221 217 217 218 226 223 226 227 228 230
330 333 333 334 330 326 324 325 323 322 318 314 309 304 300 292 281 271 263 256 251 248 236 231 226 221 218 218 217 217 221 220 217 219 219 219 219 213 218 220 219 222 227 229 232
332 334 333 334 331 328 327 328 325 323 320 317 313 310 305 296 286 278 264 252 246 244 237 228 228 221 223 221 218 217 217 222 220 219 218 219 219 216 222 223 222 221 222 226 231
332 334 334 334 330 329 330 330 325 324 321 318 316 313 308 299 291 282 266 253 243 237 229 229 225 219 217 219 220 217 217 220 222 218 217 217 218 216 221 224 227 225 225 226 228
333 335 335 333 332 332 331 329 326 324 323 320 318 315 311 305 295 283 271 255 246 237 229 224 220 220 216 218 217 218 217 219 222 220 216 215 217 216 218 220 224 228 229 231 230
334 334 336 333 332 333 331 329 326 323 322 321 319 316 315 308 296 288 273 255 247 235 226 221 217 217 216 219 218 221 220 220 221 221 220 218 216 217 219 221 222 224 227 231 235
333 334 334 333 336 334 331 329 327 324 323 322 319 317 316 309 299 290 269 251 245 235 225 218 214 213 214 216 219 220 219 220 221 223 222 220 219 217 219 223 224 224 224 225 227
334 335 334 334 335 333 330 328 327 325 324 322 319 318 316 309 299 288 270 256 241 230 225 216 212 215 213 212 215 218 220 220 219 220 219 219 220 218 216 220 224 224 223 225 224
333 334 333 334 334 331 329 327 327 326 324 322 320 318 317 310 299 285 268 254 243 232 223 218 210 213 216 215 216 218 220 221 220 219 219 218 218 222 218 217 220 223 223 222 223
332 332 332 333 332 330 327 326 327 325 324 322 319 318 317 309 299 285 267 247 241 236 226 218 212 210 214 212 214 216 218 219 219 218 217 218 218 217 220 218 219 220 221 220 221
331 331 332 333 332 329 326 326 326 326 323 321 317 319 317 309 299 280 264 254 238 231 226 219 211 209 211 212 213 214 218 220 219 215 215 216 217 216 216 217 219 218 218 220 220
331 330 332 332 331 328 325 326 326 324 322 321 317 319 316 308 297 280 267 251 241 231 224 220 210 208 207 210 211 212 215 219 220 219 218 218 217 217 214 217 218 219 217 218 219
Height
10715 10702 10688 10673 10659 10647 10636 10626 10614 10606 10597 10586 10576 10568 10564 10559 10555 10551 10549 10550 10552 10553 10558 10562 10568 10575 10586 10598 10609 10618 10630 10656 10671 10677 10682 10683 10701 10715 10727 10738 10748 10757 10764 10766 10775
10700 10686 10673 10658 10646 10631 10620 10610 10597 10589 10581 10571 10561 10552 10547 10542 10536 10532 10529 10537 10535 10536 10539 10542 10546 10555 10569 10581 10592 10606 10625 10645 10650 10654 10657 10665 10688 10704 10714 10727 10737 10746 10752 10758 10765
10685 10671 10658 10642 10627 10614 10602 10591 10580 10571 10562 10554 10544 10537 10531 10523 10516 10511 10521 10518 10521 10523 10522 10528 10531 10541 10554 10564 10580 10598 10617 10618 10627 10634 10640 10651 10675 10695 10704 10716 10725 10731 10737 10745 10754
10672 10657 10642 10628 10612 10598 10585 10573 10562 10553 10541 10535 10528 10522 10514 10504 10494 10499 10502 10501 10504 10507 10507 10512 10519 10528 10540 10552 10565 10580 10594 10600 10608 10617 10627 10643 10667 10684 10693 10702 10709 10717 10724 10739 10750
10659 10643 10628 10612 10598 10581 10567 10554 10543 10532 10523 10515 10510 10506 10494 10485 10471 10483 10484 10485 10488 10493 10494 10496 10504 10510 10523 10536 10544 10560 10574 10580 10590 10602 10613 10627 10649 10666 10680 10690 10699 10707 10718 10728 10738
10644 10627 10611 10595 10583 10566 10550 10536 10524 10512 10503 10495 10493 10490 10478 10461 10455 10470 10464 10467 10469 10475 10476 10481 10488 10493 10503 10515 10528 10543 10550 10560 10570 10582 10597 10613 10631 10650 10663 10674 10683 10694 10704 10716 10723
10627 10612 10593 10579 10564 10548 10532 10515 10505 10492 10482 10473 10473 10473 10458 10443 10438 10445 10449 10447 10452 10457 10461 10464 10467 10475 10488 10498 10512 10526 10529 10539 10550 10563 10578 10593 10611 10642 10649 10662 10667 10680 10690 10703 10712
10611 10595 10576 10560 10545 10531 10514 10498 10485 10474 10464 10455 10451 10454 10435 10428 10426 10419 10434 10429 10436 10439 10443 10445 10451 10458 10469 10480 10489 10503 10509 10522 10547 10552 10568 10575 10602 10622 10633 10646 10655 10666 10679 10691 10698
10593 10575 10557 10543 10528 10513 10495 10480 10466 10455 10445 10437 10430 10432 10416 10413 10408 10403 10413 10413 10413 10419 10425 10429 10435 10443 10450 10462 10472 10482 10501 10521 10531 10544 10551 10563 10588 10603 10618 10631 10640 10653 10664 10676 10688
10573 10555 10539 10522 10507 10494 10477 10462 10446 10435 10428 10415 10410 10407 10401 10395 10390 10387 10391 10390 10397 10397 10406 10412 10419 10427 10436 10446 10462 10476 10494 10511 10516 10529 10541 10554 10573 10583 10601 10612 10625 10638 10649 10663 10675
10554 10538 10521 10502 10486 10473 10458 10444 10428 10402 10410 10398 10393 10384 10382 10376 10370 10367 10369 10372 10377 10381 10391 10390 10397 10416 10433 10440 10450 10461 10477 10492 10500 10509 10527 10542 10554 10566 10582 10595 10611 10625 10640 10651 10662
10536 10521 10501 10481 10466 10451 10438 10424 10412 10399 10381 10382 10373 10365 10360 10358 10347 10349 10357 10355 10357 10366 10364 10367 10391 10409 10405 10411 10424 10441 10459 10477 10485 10492 10508 10522 10538 10545 10561 10583 10596 10607 10622 10637 10645
10520 10502 10483 10460 10446 10430 10417 10404 10390 10379 10372 10365 10357 10348 10342 10337 10332 10331 10334 10332 10337 10342 10348 10354 10378 10368 10384 10395 10405 10424 10440 10462 10476 10480 10496 10505 10517 10533 10552 10570 10584 10598 10611 10623 10635
10501 10481 10462 10443 10427 10411 10399 10384 10371 10361 10352 10345 10339 10333 10327 10320 10315 10312 10312 10314 10317 10320 10324 10340 10348 10355 10368 10382 10393 10407 10426 10441 10452 10462 10482 10493 10510 10524 10536 10557 10572 10585 10600 10612 10626
10481 10462 10443 10427 10409 10392 10378 10364 10352 10344 10335 10328 10322 10316 10310 10304 10297 10295 10293 10292 10296 10296 10311 10337 10331 10341 10352 10377 10380 10396 10409 10428 10440 10449 10460 10479 10494 10512 10521 10541 10566 10578 10587 10598 10611
10464 10445 10425 10408 10392 10377 10360 10345 10334 10325 10316 10310 10305 10297 10292 10286 10282 10278 10276 10276 10277 10279 10298 10305 10308 10317 10340 10349 10363 10375 10386 10404 10416 10431 10438 10468 10488 10500 10518 10536 10547 10560 10571 10582 10593
10445 10429 10410 10393 10374 10359 10344 10330 10318 10307 10302 10293 10286 10280 10274 10268 10262 10260 10259 10259 10260 10264 10281 10286 10295 10309 10319 10329 10342 10356 10369 10382 10393 10402 10422 10448 10464 10505 10509 10518 10534 10545 10554 10564 10574
10429 10411 10393 10376 10360 10345 10329 10315 10303 10292 10283 10276 10270 10263 10258 10250 10245 10242 10242 10243 10246 10251 10261 10270 10276 10297 10307 10318 10330 10343 10354 10364 10378 10393 10417 10438 10463 10489 10493 10504 10518 10531 10543 10555 10567
10413 10395 10376 10360 10343 10327 10315 10302 10287 10278 10268 10262 10255 10249 10243 10236 10229 10228 10228 10230 10232 10235 10246 10256 10267 10277 10291 10302 10313 10328 10336 10349 10361 10380 10404 10426 10450 10474 10478 10491 10502 10516 10531 10544 10555
10397 10378 10363 10344 10327 10313 10300 10289 10275 10264 10256 10248 10241 10236 10229 10223 10218 10215 10216 10216 10218 10224 10232 10241 10253 10263 10276 10283 10296 10307 10320 10331 10345 10364 10387 10411 10433 10458 10463 10472 10485 10500 10515 10528 10541
10382 10363 10347 10329 10314 10297 10284 10275 10263 10253 10244 10236 10230 10225 10218 10212 10206 10204 10204 10205 10208 10213 10219 10228 10238 10249 10261 10271 10288 10295 10309 10319 10336 10357 10376 10399 10419 10437 10449 10458 10472 10486 10503 10518 10529
10370 10351 10332 10314 10301 10287 10274 10261 10251 10242 10233 10225 10219 10215 10208 10202 10196 10195 10193 10195 10199 10203 10208 10217 10230 10240 10251 10265 10274 10285 10296 10312 10326 10350 10368 10385 10402 10421 10440 10452 10465 10480 10496 10506 10517
10352 10335 10319 10300 10286 10274 10265 10254 10242 10230 10223 10215 10208 10204 10198 10192 10187 10185 10183 10187 10189 10192 10198 10206 10217 10225 10236 10247 10257 10270 10285 10300 10318 10330 10347 10367 10389 10404 10424 10438 10451 10467 10483 10495 10509
10337 10324 10307 10291 10277 10263 10251 10242 10233 10223 10213 10205 10199 10193 10188 10183 10178 10177 10175 10176 10179 10182 10187 10195 10206 10214 10225 10240 10253 10265 10279 10292 10305 10322 10340 10354 10370 10387 10406 10423 10436 10453 10469 10483 10495
10325 10310 10294 10280 10267 10254 10242 10230 10221 10213 10207 10198 10191 10184 10178 10174 10170 10169 10168 10168 10170 10175 10180 10186 10194 10204 10212 10224 10237 10251 10261 10275 10292 10311 10323 10338 10353 10371 10390 10410 10423 10437 10453 10468 10480
10312 10295 10284 10270 10254 10242 10233 10222 10211 10206 10196 10190 10182 10176 10170 10164 10162 10162 10161 10160 10162 10165 10170 10177 10186 10194 10202 10215 10229 10243 10256 10266 10278 10293 10310 10323 10339 10355 10376 10394 10406 10422 10439 10453 10465
10293 10281 10270 10259 10244 10232 10223 10214 10203 10196 10190 10182 10173 10167 10162 10157 10152 10152 10153 10154 10155 10156 10161 10167 10177 10184 10193 10205 10216 10231 10244 10256 10273 10290 10306 10317 10333 10344 10363 10376 10391 10406 10425 10439 10451